This is the latest recevied weather packets stored in our database for station/object KD8DNS. If no packets are shown the sender has not sent any weather packets the latest 10 day(s).
| Time | Temp. | Humidity | Pressure | Rain* | Wind** | Luminosity | Snow |
|---|---|---|---|---|---|---|---|
| 1787876150 | 25° C | 74% | 1017.5 hPa | 0 mm | - | 0 W/m² | - |
| 1787875845 | 25.56° C | 74% | 1017.5 hPa | 0 mm | - | 1 W/m² | - |
| 1787875544 | 25.56° C | 73% | 1017.4 hPa | 0 mm | - | 4 W/m² | - |
| 1787875239 | 25.56° C | 73% | 1017.5 hPa | 0 mm | - | 6 W/m² | - |
| 1787874938 | 26.11° C | 72% | 1017.5 hPa | 0 mm | - | 11 W/m² | - |
| 1787874633 | 26.67° C | 72% | 1017 hPa | 0 mm | - | 16 W/m² | - |
| 1787874331 | 26.67° C | 72% | 1017.1 hPa | 0 mm | - | 23 W/m² | - |
| 1787874026 | 26.67° C | 71% | 1017.1 hPa | 0 mm | - | 29 W/m² | - |
| 1787873726 | 27.22° C | 70% | 1017.1 hPa | 0 mm | - | 29 W/m² | - |
| 1787873421 | 27.22° C | 70% | 1017 hPa | 0 mm | - | 39 W/m² | - |
| 1787873121 | 27.22° C | 70% | 1016.9 hPa | 0 mm | - | 48 W/m² | - |
| 1787872815 | 26.67° C | 70% | 1017 hPa | 0 mm | - | 42 W/m² | - |
| 1787872511 | 26.67° C | 71% | 1017.1 hPa | 0 mm | - | 35 W/m² | - |
| 1787872206 | 26.67° C | 71% | 1016.8 hPa | 0 mm | - | 33 W/m² | - |
| 1787871905 | 26.11° C | 71% | 1016.9 hPa | 0 mm | - | 26 W/m² | - |
| 1787871600 | 26.67° C | 70% | 1016.6 hPa | 0 mm | - | 26 W/m² | - |
| 1787871295 | 26.67° C | 68% | 1016.9 hPa | 0 mm | - | 21 W/m² | - |
| 1787870990 | 27.22° C | 66% | 1016.7 hPa | 0 mm | - | 23 W/m² | - |
| 1787870689 | 27.78° C | 63% | 1016.8 hPa | 0 mm | - | 28 W/m² | - |
| 1787870384 | 28.33° C | 62% | 1016.7 hPa | 0 mm | - | 35 W/m² | - |
| 1787870080 | 28.89° C | 61% | 1016.8 hPa | 0 mm | - | 48 W/m² | - |
| 1787869778 | 28.89° C | 58% | 1016.9 hPa | 0 mm | - | 77 W/m² | - |
| 1787869474 | 29.44° C | 57% | 1016.8 hPa | 0 mm | - | 78 W/m² | - |
| 1787869176 | 29.44° C | 57% | 1016.7 hPa | 0 mm | - | 85 W/m² | - |
| 1787868867 | 28.89° C | 58% | 1017 hPa | 0 mm | - | 58 W/m² | - |
* Rain latest hour (hover to see other rain measurements)
** Current wind speed in m/s (hover to see current wind gust speed)